Simultaneous Nadir Overpasses (SNOs) Predictions

Prediction of SNOs between NOAA-19 and NPP Satellite Orbit:

Table of predicted SNOs for the next 14.0 days since TLE Epoch: 9/9/2016
Index Date (NOAA-19) Time (NOAA-19) Lat,Lon (NOAA-19) SZA (NOAA-19 ) Date (NPP) Time (NPP) Lat,Lon (NPP) SZA (NPP ) Distance(km) Time Diff (sec)
1 09/22/2016 03:25:37 -80.97,-103.87 95.92 09/22/2016 03:26:37 -80.96,-103.97 95.94 1.67 60
2 09/22/2016 04:16:35 80.96, 63.18 84.12 09/22/2016 04:17:22 80.96, 63.37 84.07 3.27 47
3 09/22/2016 05:07:39 -80.97,-129.41 95.89 09/22/2016 05:08:07 -80.97,-129.40 95.91 0.18 28
4 09/22/2016 05:58:36 80.97, 38.03 84.11 09/22/2016 05:58:52 80.97, 37.94 84.11 1.59 16
5 09/22/2016 06:49:41 -80.97,-154.94 95.86 09/22/2016 06:49:37 -80.97,-154.83 95.87 2.01 4
6 09/22/2016 07:40:38 80.97, 12.50 84.14 09/22/2016 07:40:22 80.97, 12.51 84.14 0.15 16
7 09/22/2016 08:31:42 -80.97, 179.90 95.88 09/22/2016 08:31:07 -80.97, 179.74 95.84 2.77 35
8 09/22/2016 09:22:40 80.97, -13.03 84.16 09/22/2016 09:21:52 80.97, -12.93 84.18 1.89 48




NCC Satellite Simultaneous Nadir Overpasses (SNOs) Prediction Service
